FW1418 Weather Reports


Display with metric or nautical units.
time (UTC)temp
F
wind
direction
speed
MPH
gust
MPH
rain 1hr
in
rain 24hr
in
rain mn
in
humidity
%
barometer
mb
20260504174614 74 187 10.0 31.0 0.00 0.08 0.01 32 994.2
20260504173055 74 132 15.0 34.0 0.00 0.08 0.01 32 994.0
20260504171554 74 258 16.0 35.0 0.00 0.08 0.01 32 994.6
20260504081523 40 159 1.0 2.0 0.00 0.07 0.00 98 1001.6
20260504044604 42 153 0.0 2.0 0.00 0.07 0.00 90 1003.4
20260504043055 44 153 0.0 2.0 0.00 0.07 0.00 87 1003.4
20260504041546 47 153 1.0 2.0 0.00 0.07 0.00 87 1003.4
20260504040059 49 227 0.0 3.0 0.00 0.07 0.07 84 1003.6
20260504034603 51 271 3.0 7.0 0.00 0.07 0.07 81 1003.4
20260504033041 51 232 2.0 5.0 0.00 0.07 0.07 82 1003.3
20260504031541 51 194 1.0 9.0 0.00 0.07 0.07 81 1003.2
20260504030051 52 208 1.0 5.0 0.00 0.07 0.07 80 1003.4
20260504024539 51 198 3.0 10.0 0.00 0.07 0.07 82 1003.2
20260504023039 51 225 6.0 16.0 0.00 0.07 0.07 84 1003.2
20260504021539 50 198 6.0 15.0 0.00 0.07 0.07 86 1003.0
20260504020037 49 201 0.0 4.0 0.00 0.07 0.07 86 1003.0
20260504014537 50 196 0.0 4.0 0.00 0.07 0.07 85 1002.9
20260504013047 50 191 1.0 5.0 0.00 0.07 0.07 87 1003.0
20260504011539 50 166 3.0 6.0 0.00 0.07 0.07 86 1002.8
20260504010036 51 172 1.0 10.0 0.00 0.07 0.07 85 1002.9
20260504004536 51 196 4.0 13.0 0.01 0.07 0.07 84 1003.2
20260504003035 52 205 2.0 11.0 0.05 0.07 0.07 85 1003.2
20260504001535 51 154 2.0 8.0 0.07 0.07 0.07 87 1003.1
20260504000034 52 207 4.0 10.0 0.07 0.07 0.07 86 1003.4
20260503234534 53 208 9.0 19.0 0.06 0.06 0.06 83 1003.6
20260503233037 56 232 4.0 14.0 0.02 0.02 0.02 74 1004.5
20260503231535 59 221 4.0 16.0 0.00 0.00 0.00 63 1003.7
20260503230032 59 197 3.0 18.0 0.00 0.00 0.00 60 1003.3
20260503224532 60 190 7.0 23.0 0.00 0.00 0.00 60 1002.9
20260503223031 61 146 7.0 17.0 0.00 0.00 0.00 58 1002.9
20260503221531 62 207 8.0 18.0 0.00 0.00 0.00 57 1003.1
20260503220029 62 185 11.0 26.0 0.00 0.00 0.00 57 1002.7
20260503214528 62 201 6.0 19.0 0.00 0.00 0.00 59 1002.9
20260503213029 61 204 11.0 20.0 0.00 0.00 0.00 59 1003.4
20260503211532 62 214 7.0 25.0 0.00 0.00 0.00 59 1003.9
20260503210023 60 251 10.0 19.0 0.00 0.00 0.00 62 1004.0
20260503204522 61 212 11.0 24.0 0.00 0.00 0.00 61 1004.2
20260503203020 63 194 6.0 19.0 0.00 0.00 0.00 60 1004.3
20260503201520 62 162 12.0 22.0 0.00 0.00 0.00 60 1004.5
20260503200016 63 189 2.0 15.0 0.00 0.00 0.00 60 1004.7
20260503194512 61 184 5.0 17.0 0.00 0.00 0.00 63 1005.0
20260503193008 60 173 11.0 26.0 0.00 0.00 0.00 64 1005.2
20260503191506 59 207 12.0 28.0 0.00 0.00 0.00 65 1005.5
20260503190004 58 190 7.0 24.0 0.00 0.00 0.00 68 1005.9
20260503184603 57 190 7.0 17.0 0.00 0.00 0.00 67 1005.9
20260503183107 55 211 6.0 18.0 0.00 0.00 0.00 71 1006.1
20260503181554 53 198 8.0 16.0 0.00 0.00 0.00 76 1006.3
20260503180057 54 194 11.0 19.0 0.00 0.00 0.00 67 1007.0